HELIOS 1B

导读

HELIOS 1B(太阳神1B)是法国主导联合研发的欧洲第一代光学成像侦察卫星,1999年12月3日由阿里安-4火箭自法属圭亚那库鲁发射升空。卫星基于斯波特卫星技术研制,运行于倾角98.1°、高度约680千米的太阳同步近圆轨道,发射质量2.5吨,设计寿命5年,地面分辨率达1米,为参与国提供军事情报服务,因电池故障于2004年停止工作。

Basic Information
目录编号:
25977
目录名称:
HELIOS 1B
国际标识:
1999-064A
轨道中心:
EARTH
卫星名称:
HELIOS 1B
卫星全名:
--
卫星状态:
在轨 (已飞行9780 天)
发射日期:
1999-12-03 UTC
国别 :
法国 (FR)
星等 :
--
This satellite is enrolled in the Space Conjunction Data Service (SCDS) and the current flight risk assessment level is: No High Risk
Orbit Information
数据来源 国际轨道数据 AOE轨道数据
星历时间 2026-09-12T12:30:25+0800
13小时前
查看轨道信息
2026-09-07T02:00:00+0800
6天前
查看轨道信息
半长轴 6981.714km 6981.724km
偏心率 0.0001823 0.0001598
轨道倾角 98.152° 98.152°
近地点辐角 121.488° 125.537°
升交点赤经 162.812° 157.220°
平近点角 238.651° 279.522°
近地点 602.304km 602.471km
远地点 604.85km 604.703km
周期 96.762分钟 96.762分钟
每日圈数 14.881946 14.881915
Detailed Information
使用方式:
暂无
2D Orbit Map
3D Orbit Map
Orbit Altitude Analysis Chart
Orbit Inclination Analysis Chart
Orbit Comprehensive Analysis Chart
View Comprehensive Chart
Conjunction Data List
Event ID Objects TCA Miss Dist (km) Collision Risk Probability Collision Risk Index (CRI) Action
CDM_260914-091301-414802-597726
2026-09-14T
09:13:05+0000
2.082 km
极远距离
2.617573E-6 低风险 0.43
Miss Distance Evolution Trend with All Objects
Collision Probability Evolution Trend with All Objects